Lid_Strength_Index
6 6 5 4 3 3 3 3 3 3 3 5 7 8 9 9 8 9 8 9 9 9 10 10 9 9 9 10 10 11 11 11 11 12 12 11 10 11 11 11 10 9 9
7 6 6 5 5 5 4 4 5 5 5 5 7 8 8 8 8 8 10 11 11 11 11 11 10 11 10 11 12 13 13 12 12 12 13 14 12 11 11 11 10 10 11
7 7 7 6 7 7 6 6 6 6 6 6 6 6 6 7 8 9 10 11 11 11 11 11 11 11 12 13 13 13 13 13 12 12 13 15 16 14 12 12 11 11 11
7 7 7 7 7 8 7 7 6 7 6 6 6 7 8 9 9 10 10 11 11 12 11 11 12 13 13 13 13 12 13 13 13 12 11 13 14 15 16 13 13 12 12
7 7 6 6 6 7 8 8 7 8 7 8 8 8 9 10 10 11 11 11 12 12 12 13 13 13 13 13 13 13 14 13 13 13 13 14 14 14 16 17 16 13 13
7 7 6 6 7 7 8 8 8 9 9 9 10 10 10 11 12 12 12 12 12 13 13 13 13 13 13 13 14 14 14 14 14 14 14 14 15 15 16 17 16 16 15
7 7 7 7 8 8 9 9 10 11 11 11 11 11 12 13 13 13 14 13 14 14 14 14 14 14 14 14 14 14 14 14 15 15 15 15 14 14 14 15 16 16 14
7 7 7 8 8 8 9 10 11 11 12 12 12 12 12 13 13 13 14 15 15 15 14 14 14 15 14 15 15 15 15 15 16 16 16 15 14 13 13 14 15 16 16
7 7 7 7 8 9 9 10 11 11 12 12 13 13 13 14 14 15 15 15 15 13 15 15 15 15 15 15 15 16 16 16 16 16 15 15 14 13 12 12 13 14 17
7 7 7 8 9 9 10 10 11 11 12 13 14 14 14 14 15 15 16 15 15 15 15 15 15 15 15 16 16 16 16 16 15 14 15 14 13 13 13 13 13 13 14
8 7 7 8 9 9 10 11 11 12 13 13 14 14 14 15 15 15 15 16 16 15 15 15 15 16 16 16 16 16 15 15 15 15 14 14 13 13 13 13 13 13 13
8 8 8 9 9 10 11 12 12 12 13 14 14 14 15 16 16 16 16 16 15 15 15 15 15 16 15 15 16 16 15 15 15 15 14 14 13 14 13 13 13 13 12
8 8 8 9 9 10 11 12 12 13 13 14 14 15 16 16 17 17 16 15 15 15 15 15 16 15 15 15 15 15 15 15 15 15 14 14 14 14 14 13 13 12 10
7 8 9 9 9 10 11 12 13 13 14 14 15 16 16 16 16 16 16 15 15 15 16 15 15 15 15 14 14 14 15 15 14 14 14 14 14 14 13 12 11 10 10
8 8 9 9 10 11 12 13 13 14 14 15 15 16 16 16 16 16 15 15 15 15 16 16 15 15 14 13 13 13 14 15 15 14 13 13 12 10 9 9 10 10 10
9 9 9 10 11 12 13 13 14 14 15 15 15 15 16 16 16 15 16 16 16 16 16 16 16 16 14 11 10 11 13 14 14 14 13 13 11 10 7 7 6 6 8
8 8 9 10 11 12 12 14 15 15 15 16 16 16 15 16 15 16 16 17 17 17 17 16 16 16 16 11 10 10 13 14 14 14 13 12 10 9 9 7 6 7 6
8 8 9 10 12 13 13 15 15 15 16 16 15 15 15 16 16 17 18 18 17 17 17 17 16 16 15 11 11 10 13 14 14 13 12 11 10 9 8 9 9 8 7
8 9 10 11 12 13 14 15 16 16 16 16 16 16 16 16 17 18 18 17 17 17 17 16 16 17 16 12 11 11 13 13 13 11 10 9 9 8 7 8 8 9 9
10 12 12 13 14 15 15 16 17 17 17 16 16 16 16 17 18 18 17 17 17 17 16 16 16 15 16 12 11 11 13 13 12 10 10 8 9 7 5 8 9 12 12
12 12 13 15 15 16 16 17 17 17 16 16 16 16 17 18 17 17 17 17 17 17 17 18 17 17 15 14 11 10 12 11 10 10 10 9 7 5 6 7 11 11 9
14 14 15 15 15 16 17 18 18 17 16 16 16 17 18 16 16 17 17 17 17 18 18 18 17 16 16 12 11 10 8 7 10 10 10 9 6 7 8 9 8 8 10
14 14 15 17 17 16 16 17 17 17 17 17 18 18 17 17 17 18 18 18 18 18 18 17 16 16 15 14 10 9 7 7 9 9 7 7 8 9 10 10 10 11 14
15 15 16 17 17 17 17 17 17 16 18 18 18 17 17 16 17 17 17 18 18 18 17 16 16 16 15 13 12 10 10 8 8 8 10 10 10 10 11 13 13 13 13
14 15 16 17 18 18 17 17 17 18 18 18 18 18 17 18 18 17 18 18 17 15 15 15 15 15 14 12 8 9 9 9 9 10 12 13 13 14 14 14 14 14 14
14 15 16 17 18 17 18 18 17 18 18 18 18 18 17 18 18 18 18 14 13 12 12 11 12 12 9 8 8 8 7 8 8 12 14 14 15 15 15 15 15 14 14